Location: City of Moscow
(46.7306°N, 116.9989°W)
Time: 03:16:49
(UTC+00:00)

Cosmos 1626 Rocket - Pass Details

Date: 23 March 2026
Orbit: 596 x 624 km, 82.5° (Epoch: 13 April)

Event Time Altitude Azimuth Distance (km) Brightness Sun altitude
Rises 11:30:56 0° 350° (N) 2,884 7.2 -22.8°
Reaches altitude 10° 11:33:10 10° 350° (N) 1,970 6.3 -22.5°
Maximum altitude 11:37:32 86° 264° (W) 612 3.4 -21.8°
Enters shadow 11:39:20 35° 175° (S) 981 4.4 -21.5°
